KLM39J EHAM-LDSP

Flight info

Callsign KLM39J
Flight time 1h 43m
Altitude 35000
Route EDUPO Z739 MISGO DCT ASBON DCT TUSUK DCT UTABA DCT BEMKI DCT ELMEM DCT DIRAB DCT VESAL DCT PEVAL DCT PUL DCT LOS DCT MINTU DCT SAL
Aircraft B739/M-SDE2E3FGIJ1RWY/LB1

Departure

Time 2026-04-17 08:07
Airport Amsterdam Airport Schiphol (EHAM)

Arrival

Time 2026-04-17 09:51
Airport Split Saint Jerome Airport (LDSP)
Time Latitude Longitude Altitude Speed Heading
2026-04-17 07:28 52.30625 4.76634 -2 ft 0 kts 238°
2026-04-17 07:55 52.30627 4.76639 -2 ft 3 kts 238°
2026-04-17 07:56 52.30641 4.76677 -2 ft 4 kts 238°
2026-04-17 07:56 52.30654 4.76712 -2 ft 4 kts 237°
2026-04-17 07:56 52.30670 4.76735 -2 ft 4 kts 169°
2026-04-17 07:56 52.30693 4.76717 -2 ft 4 kts 148°
2026-04-17 07:57 52.30699 4.76711 -2 ft 1 kts 150°
2026-04-17 07:59 52.30695 4.76714 -2 ft 2 kts 150°
2026-04-17 07:59 52.30678 4.76729 -2 ft 4 kts 150°
2026-04-17 08:00 52.30646 4.76761 -2 ft 6 kts 144°
2026-04-17 08:00 52.30631 4.76834 -2 ft 8 kts 76°
2026-04-17 08:00 52.30654 4.76925 -2 ft 10 kts 83°
2026-04-17 08:00 52.30651 4.77054 -2 ft 13 kts 93°
2026-04-17 08:01 52.30646 4.77218 -2 ft 15 kts 93°
2026-04-17 08:01 52.30640 4.77381 -2 ft 14 kts 93°
2026-04-17 08:01 52.30645 4.77536 -2 ft 13 kts 75°
2026-04-17 08:01 52.30719 4.77594 -2 ft 13 kts
2026-04-17 08:02 52.30808 4.77603 -2 ft 13 kts
2026-04-17 08:02 52.30908 4.77612 -2 ft 16 kts
2026-04-17 08:02 52.31027 4.77622 -2 ft 18 kts
2026-04-17 08:02 52.31150 4.77633 -2 ft 17 kts
2026-04-17 08:03 52.31269 4.77644 -2 ft 17 kts
2026-04-17 08:03 52.31382 4.77655 -2 ft 16 kts
2026-04-17 08:03 52.31484 4.77599 -2 ft 16 kts 321°
2026-04-17 08:03 52.31568 4.77498 -2 ft 15 kts 347°
2026-04-17 08:04 52.31663 4.77540 -3 ft 14 kts 37°
2026-04-17 08:04 52.31726 4.77661 -2 ft 14 kts 42°
2026-04-17 08:04 52.31814 4.77695 -4 ft 13 kts
2026-04-17 08:04 52.31904 4.77702 -2 ft 13 kts
2026-04-17 08:05 52.31990 4.77721 -2 ft 12 kts 19°
2026-04-17 08:05 52.32059 4.77800 -2 ft 12 kts 42°
2026-04-17 08:05 52.32117 4.77896 -2 ft 12 kts 62°
2026-04-17 08:05 52.32116 4.78002 -2 ft 6 kts 132°
2026-04-17 08:06 52.32082 4.78012 -2 ft 0 kts 182°
2026-04-17 08:06 52.32073 4.78011 -2 ft 7 kts 182°
2026-04-17 08:06 52.31829 4.77989 -3 ft 68 kts 183°
2026-04-17 08:07 52.31147 4.77926 -4 ft 126 kts 183°
2026-04-17 08:07 52.30131 4.77827 34 ft 165 kts 183°
2026-04-17 08:07 52.28946 4.77807 479 ft 173 kts 177°
2026-04-17 08:07 52.27745 4.77948 1144 ft 173 kts 171°
2026-04-17 08:08 52.26609 4.78794 1547 ft 197 kts 140°
2026-04-17 08:08 52.25794 4.80758 1832 ft 221 kts 113°
2026-04-17 08:08 52.25563 4.83301 2306 ft 232 kts 94°
2026-04-17 08:08 52.25521 4.85979 2843 ft 243 kts 93°
2026-04-17 08:09 52.25458 4.88848 3165 ft 263 kts 94°
2026-04-17 08:09 52.25382 4.91876 3811 ft 269 kts 94°
2026-04-17 08:09 52.25301 4.94959 4558 ft 272 kts 93°
2026-04-17 08:09 52.25218 4.98048 5331 ft 273 kts 93°
2026-04-17 08:10 52.25131 5.01161 6084 ft 275 kts 93°
2026-04-17 08:10 52.25044 5.04262 6827 ft 277 kts 94°
2026-04-17 08:10 52.24954 5.07422 7469 ft 281 kts 94°
2026-04-17 08:10 52.24860 5.10657 8101 ft 287 kts 94°
2026-04-17 08:11 52.24764 5.13942 8747 ft 291 kts 94°
2026-04-17 08:11 52.24667 5.17229 9389 ft 295 kts 95°
2026-04-17 08:11 52.24564 5.20613 10049 ft 300 kts 95°
2026-04-17 08:11 52.24445 5.24052 10544 ft 309 kts 99°
2026-04-17 08:12 52.23732 5.27441 10666 ft 324 kts 125°
2026-04-17 08:12 52.22419 5.30532 10839 ft 342 kts 128°
2026-04-17 08:12 52.21006 5.33706 11151 ft 354 kts 129°
2026-04-17 08:12 52.19544 5.36988 11688 ft 359 kts 129°
2026-04-17 08:13 52.18075 5.40315 12328 ft 362 kts 128°
2026-04-17 08:13 52.16606 5.43663 12939 ft 366 kts 128°
2026-04-17 08:13 52.15117 5.47071 13536 ft 371 kts 128°
2026-04-17 08:14 52.12093 5.54000 14717 ft 378 kts 128°
2026-04-17 08:14 52.10579 5.57460 15271 ft 381 kts 128°
2026-04-17 08:14 52.09032 5.60990 15837 ft 384 kts 128°
2026-04-17 08:14 52.07471 5.64543 16408 ft 388 kts 128°
2026-04-17 08:15 52.05888 5.68114 16979 ft 391 kts 130°
2026-04-17 08:15 52.04154 5.71533 17536 ft 392 kts 134°
2026-04-17 08:15 52.02327 5.74863 18080 ft 396 kts 135°
2026-04-17 08:15 52.00489 5.78214 18597 ft 399 kts 134°
2026-04-17 08:16 51.98650 5.81620 19048 ft 403 kts 134°
2026-04-17 08:16 51.96819 5.85041 19501 ft 406 kts 134°
2026-04-17 08:16 51.94955 5.88520 19930 ft 410 kts 134°
2026-04-17 08:16 51.93068 5.92033 20332 ft 415 kts 134°
2026-04-17 08:17 51.91163 5.95573 20770 ft 418 kts 134°
2026-04-17 08:17 51.89242 5.99146 21231 ft 421 kts 134°
2026-04-17 08:17 51.87306 6.02737 21727 ft 424 kts 134°
2026-04-17 08:17 51.85378 6.06306 22205 ft 428 kts 134°
2026-04-17 08:18 51.83406 6.09930 22674 ft 431 kts 134°
2026-04-17 08:18 51.81403 6.13592 23129 ft 435 kts 134°
2026-04-17 08:18 51.79383 6.17279 23601 ft 438 kts 134°
2026-04-17 08:18 51.77357 6.20976 24009 ft 441 kts 134°
2026-04-17 08:19 51.75316 6.24701 24380 ft 444 kts 134°
2026-04-17 08:19 51.73286 6.28408 24762 ft 447 kts 134°
2026-04-17 08:19 51.71218 6.32181 25149 ft 450 kts 134°
2026-04-17 08:19 51.69130 6.35989 25502 ft 453 kts 133°
2026-04-17 08:20 51.67031 6.39814 25857 ft 456 kts 134°
2026-04-17 08:20 51.64946 6.43601 26226 ft 459 kts 134°
2026-04-17 08:20 51.62808 6.47476 26585 ft 461 kts 133°
2026-04-17 08:20 51.60667 6.51350 26972 ft 463 kts 133°
2026-04-17 08:21 51.58516 6.55237 27337 ft 465 kts 133°
2026-04-17 08:21 51.56375 6.59101 27663 ft 468 kts 133°
2026-04-17 08:21 51.54201 6.63022 27991 ft 471 kts 133°
2026-04-17 08:21 51.52006 6.66975 28324 ft 474 kts 133°
2026-04-17 08:22 51.49800 6.70941 28661 ft 477 kts 133°
2026-04-17 08:22 51.47584 6.74920 28987 ft 479 kts 133°
2026-04-17 08:22 51.45347 6.78932 29246 ft 483 kts 133°
2026-04-17 08:22 51.43127 6.82907 29530 ft 486 kts 133°
2026-04-17 08:23 51.40798 6.86854 29843 ft 487 kts 139°
2026-04-17 08:23 51.38148 6.90243 30149 ft 486 kts 149°
2026-04-17 08:23 51.36254 6.92160 30376 ft 486 kts 150°
2026-04-17 08:23 51.33371 6.94987 30774 ft 484 kts 150°
2026-04-17 08:24 51.30495 6.97789 31184 ft 482 kts 150°
2026-04-17 08:24 51.27636 7.00591 31532 ft 482 kts 150°
2026-04-17 08:24 51.24782 7.03410 31842 ft 482 kts 150°
2026-04-17 08:24 51.21934 7.06244 32171 ft 482 kts 150°
2026-04-17 08:25 51.19092 7.09081 32515 ft 482 kts 150°
2026-04-17 08:25 51.16255 7.11916 32830 ft 481 kts 150°
2026-04-17 08:25 51.13411 7.14756 33127 ft 482 kts 150°
2026-04-17 08:25 51.10563 7.17593 33324 ft 484 kts 149°
2026-04-17 08:26 51.07713 7.20429 33678 ft 482 kts 149°
2026-04-17 08:26 51.04906 7.23218 34066 ft 480 kts 149°
2026-04-17 08:26 51.02069 7.26033 34348 ft 480 kts 150°
2026-04-17 08:26 50.99222 7.28850 34559 ft 481 kts 150°
2026-04-17 08:27 50.96376 7.31662 34787 ft 481 kts 150°
2026-04-17 08:27 50.93570 7.34430 35045 ft 480 kts 150°
2026-04-17 08:27 50.90729 7.37229 35253 ft 480 kts 150°
2026-04-17 08:28 50.85024 7.42838 35237 ft 481 kts 150°
2026-04-17 08:28 50.79350 7.48404 35234 ft 478 kts 150°
2026-04-17 08:29 50.73700 7.53930 35232 ft 476 kts 150°
2026-04-17 08:29 50.68136 7.59510 35242 ft 475 kts 148°
2026-04-17 08:30 50.62607 7.65282 35227 ft 476 kts 148°
2026-04-17 08:30 50.57116 7.71003 35239 ft 477 kts 148°
2026-04-17 08:31 50.51548 7.76750 35239 ft 478 kts 149°
2026-04-17 08:31 50.45986 7.82459 35235 ft 480 kts 149°
2026-04-17 08:32 50.40381 7.88196 35246 ft 481 kts 149°
2026-04-17 08:32 50.34754 7.93942 35225 ft 482 kts 149°
2026-04-17 08:33 50.29156 7.99641 35242 ft 482 kts 149°
2026-04-17 08:33 50.23508 8.05376 35235 ft 482 kts 149°
2026-04-17 08:34 50.17910 8.11046 35240 ft 482 kts 149°
2026-04-17 08:34 50.12218 8.16589 35217 ft 479 kts 155°
2026-04-17 08:35 50.06234 8.20991 35234 ft 476 kts 159°
2026-04-17 08:35 50.00189 8.25189 35245 ft 476 kts 159°
2026-04-17 08:36 49.94134 8.29455 35243 ft 475 kts 158°
2026-04-17 08:36 49.88146 8.33733 35223 ft 475 kts 158°
2026-04-17 08:37 49.82141 8.38037 35228 ft 475 kts 158°
2026-04-17 08:37 49.76164 8.42310 35227 ft 475 kts 158°
2026-04-17 08:38 49.70149 8.46594 35235 ft 475 kts 158°
2026-04-17 08:38 49.64176 8.50836 35233 ft 475 kts 158°
2026-04-17 08:39 49.58157 8.55098 35236 ft 475 kts 158°
2026-04-17 08:39 49.52138 8.59348 35242 ft 475 kts 158°
2026-04-17 08:40 49.46114 8.63591 35245 ft 476 kts 158°
2026-04-17 08:40 49.40118 8.67802 35222 ft 476 kts 158°
2026-04-17 08:41 49.34093 8.72023 35234 ft 476 kts 158°
2026-04-17 08:41 49.28049 8.76245 35225 ft 476 kts 158°
2026-04-17 08:42 49.22010 8.80453 35221 ft 476 kts 158°
2026-04-17 08:42 49.16007 8.84623 35200 ft 476 kts 158°
2026-04-17 08:43 49.09960 8.88814 35212 ft 476 kts 158°
2026-04-17 08:43 49.03937 8.92977 35209 ft 476 kts 158°
2026-04-17 08:44 48.97891 8.97144 35212 ft 476 kts 158°
2026-04-17 08:44 48.91884 9.01273 35211 ft 476 kts 158°
2026-04-17 08:45 48.85835 9.05422 35228 ft 476 kts 158°
2026-04-17 08:45 48.79779 9.09563 35236 ft 476 kts 158°
2026-04-17 08:46 48.73765 9.13664 35235 ft 476 kts 158°
2026-04-17 08:46 48.67718 9.17777 35241 ft 476 kts 158°
2026-04-17 08:47 48.61652 9.21892 35239 ft 477 kts 158°
2026-04-17 08:47 48.55581 9.26000 35233 ft 477 kts 158°
2026-04-17 08:48 48.49528 9.30085 35206 ft 478 kts 158°
2026-04-17 08:48 48.43437 9.34185 35204 ft 478 kts 158°
2026-04-17 08:49 48.37382 9.38250 35214 ft 479 kts 158°
2026-04-17 08:49 48.31285 9.42335 35212 ft 479 kts 158°
2026-04-17 08:50 48.25277 9.46626 35206 ft 481 kts 150°
2026-04-17 08:50 48.19965 9.52767 35227 ft 482 kts 141°
2026-04-17 08:51 48.14849 9.59214 35227 ft 483 kts 141°
2026-04-17 08:51 48.09679 9.65636 35231 ft 483 kts 141°
2026-04-17 08:52 48.04473 9.72016 35224 ft 483 kts 142°
2026-04-17 08:52 47.99254 9.78375 35225 ft 483 kts 142°
2026-04-17 08:53 47.94062 9.84685 35228 ft 483 kts 141°
2026-04-17 08:53 47.88839 9.91021 35226 ft 483 kts 142°
2026-04-17 08:54 47.83643 9.97307 35225 ft 483 kts 142°
2026-04-17 08:54 47.78408 10.03625 35209 ft 483 kts 142°
2026-04-17 08:55 47.73199 10.09894 35221 ft 483 kts 142°
2026-04-17 08:55 47.67964 10.16178 35217 ft 483 kts 142°
2026-04-17 08:56 47.62716 10.22461 35216 ft 484 kts 142°
2026-04-17 08:56 47.57496 10.28696 35219 ft 484 kts 142°
2026-04-17 08:57 47.52057 10.34607 35208 ft 483 kts 148°
2026-04-17 08:57 47.46424 10.39942 35222 ft 483 kts 148°
2026-04-17 08:58 47.40763 10.45326 35235 ft 483 kts 148°
2026-04-17 08:58 47.35170 10.50741 35229 ft 483 kts 147°
2026-04-17 08:59 47.29547 10.56185 35225 ft 483 kts 147°
2026-04-17 08:59 47.23983 10.61781 35234 ft 483 kts 145°
2026-04-17 09:00 47.18555 10.67557 35239 ft 483 kts 144°
2026-04-17 09:00 47.13092 10.73338 35248 ft 483 kts 145°
2026-04-17 09:01 47.07642 10.79035 35248 ft 483 kts 145°
2026-04-17 09:01 47.02150 10.84743 35252 ft 483 kts 145°
2026-04-17 09:02 46.96694 10.90402 35254 ft 483 kts 145°
2026-04-17 09:02 46.91192 10.96098 35249 ft 483 kts 145°
2026-04-17 09:03 46.85687 11.01782 35234 ft 483 kts 145°
2026-04-17 09:03 46.80356 11.07633 35237 ft 482 kts 136°
2026-04-17 09:04 46.75758 11.14759 35245 ft 481 kts 132°
2026-04-17 09:04 46.71225 11.21971 35246 ft 481 kts 132°
2026-04-17 09:05 46.66681 11.29080 35197 ft 482 kts 133°
2026-04-17 09:05 46.62086 11.36188 35192 ft 482 kts 133°
2026-04-17 09:06 46.57471 11.43297 35191 ft 483 kts 133°
2026-04-17 09:06 46.52851 11.50401 35188 ft 483 kts 133°
2026-04-17 09:07 46.48250 11.57459 35179 ft 483 kts 133°
2026-04-17 09:07 46.43618 11.64549 35185 ft 483 kts 133°
2026-04-17 09:08 46.39021 11.71566 35201 ft 482 kts 133°
2026-04-17 09:08 46.34317 11.78526 35178 ft 482 kts 135°
2026-04-17 09:09 46.29592 11.85351 35182 ft 482 kts 135°
2026-04-17 09:09 46.24836 11.92216 35177 ft 482 kts 135°
2026-04-17 09:10 46.17747 12.02466 35210 ft 482 kts 135°
2026-04-17 09:10 46.13789 12.08181 35183 ft 483 kts 135°
2026-04-17 09:11 46.09025 12.15042 35171 ft 484 kts 135°
2026-04-17 09:11 46.04274 12.21865 35175 ft 484 kts 135°
2026-04-17 09:12 45.99477 12.28735 35178 ft 484 kts 135°
2026-04-17 09:12 45.94730 12.35518 35183 ft 484 kts 135°
2026-04-17 09:13 45.89939 12.42345 35176 ft 483 kts 135°
2026-04-17 09:13 45.85159 12.49139 35169 ft 483 kts 135°
2026-04-17 09:14 45.80410 12.55872 35169 ft 482 kts 135°
2026-04-17 09:14 45.75629 12.62633 35162 ft 481 kts 135°
2026-04-17 09:15 45.70873 12.69341 35157 ft 481 kts 135°
2026-04-17 09:15 45.66093 12.76067 35153 ft 482 kts 135°
2026-04-17 09:16 45.61340 12.82738 35142 ft 481 kts 135°
2026-04-17 09:16 45.56543 12.89453 35145 ft 481 kts 135°
2026-04-17 09:17 45.51778 12.96108 35170 ft 481 kts 135°
2026-04-17 09:17 45.46966 13.02811 35158 ft 482 kts 135°
2026-04-17 09:18 45.42190 13.09448 35151 ft 482 kts 135°
2026-04-17 09:18 45.37379 13.16117 35145 ft 481 kts 135°
2026-04-17 09:19 45.32605 13.22721 35148 ft 481 kts 135°
2026-04-17 09:19 45.27978 13.29614 35156 ft 481 kts 130°
2026-04-17 09:20 45.23586 13.36791 35149 ft 481 kts 129°
2026-04-17 09:20 45.19223 13.43922 35142 ft 481 kts 130°
2026-04-17 09:21 45.14800 13.51053 35133 ft 480 kts 130°
2026-04-17 09:21 45.10395 13.58103 35133 ft 480 kts 130°
2026-04-17 09:22 45.05953 13.65194 35127 ft 480 kts 130°
2026-04-17 09:22 45.01540 13.72224 35126 ft 479 kts 130°
2026-04-17 09:23 44.97093 13.79292 35152 ft 479 kts 130°
2026-04-17 09:23 44.92661 13.86322 35168 ft 479 kts 130°
2026-04-17 09:24 44.88252 13.93286 35160 ft 479 kts 131°
2026-04-17 09:24 44.83747 14.00206 35154 ft 479 kts 131°
2026-04-17 09:25 44.79208 14.07107 35120 ft 478 kts 131°
2026-04-17 09:25 44.74712 14.13950 35124 ft 478 kts 131°
2026-04-17 09:26 44.70188 14.20835 35127 ft 478 kts 131°
2026-04-17 09:26 44.65699 14.27651 35126 ft 477 kts 131°
2026-04-17 09:27 44.61175 14.34504 35131 ft 477 kts 131°
2026-04-17 09:27 44.56619 14.41392 34393 ft 488 kts 131°
2026-04-17 09:28 44.54306 14.44880 33682 ft 488 kts 131°
2026-04-17 09:28 44.51998 14.48268 33102 ft 483 kts 135°
2026-04-17 09:28 44.49491 14.51408 32519 ft 479 kts 139°
2026-04-17 09:28 44.46936 14.54389 31957 ft 475 kts 139°
2026-04-17 09:29 44.44403 14.57305 31484 ft 467 kts 139°
2026-04-17 09:29 44.41958 14.60146 30995 ft 457 kts 138°
2026-04-17 09:29 44.39541 14.62996 30311 ft 453 kts 138°
2026-04-17 09:29 44.37141 14.65854 29471 ft 451 kts 137°
2026-04-17 09:30 44.34769 14.68679 28869 ft 443 kts 138°
2026-04-17 09:30 44.32442 14.71443 28308 ft 435 kts 138°
2026-04-17 09:30 44.30153 14.74151 27798 ft 427 kts 138°
2026-04-17 09:30 44.27900 14.76810 27285 ft 420 kts 138°
2026-04-17 09:31 44.25708 14.79396 26797 ft 413 kts 138°
2026-04-17 09:31 44.23527 14.81967 26323 ft 406 kts 138°
2026-04-17 09:31 44.21378 14.84500 25836 ft 401 kts 138°
2026-04-17 09:31 44.19262 14.86992 25368 ft 396 kts 138°
2026-04-17 09:32 44.17156 14.89471 24913 ft 394 kts 138°
2026-04-17 09:32 44.15043 14.91957 24468 ft 403 kts 138°
2026-04-17 09:32 44.12904 14.94471 23962 ft 409 kts 138°
2026-04-17 09:32 44.10722 14.97031 23443 ft 407 kts 139°
2026-04-17 09:33 44.08550 14.99575 22885 ft 405 kts 139°
2026-04-17 09:33 44.06405 15.02086 22380 ft 401 kts 139°
2026-04-17 09:33 44.04296 15.04552 21902 ft 398 kts 139°
2026-04-17 09:33 44.02188 15.07016 21426 ft 394 kts 139°
2026-04-17 09:34 44.00090 15.09466 20949 ft 392 kts 139°
2026-04-17 09:34 43.97997 15.11909 20466 ft 389 kts 139°
2026-04-17 09:34 43.95960 15.14283 20007 ft 386 kts 139°
2026-04-17 09:34 43.93908 15.16670 19553 ft 384 kts 138°
2026-04-17 09:35 43.91878 15.19067 19092 ft 381 kts 137°
2026-04-17 09:35 43.89872 15.21471 18641 ft 379 kts 137°
2026-04-17 09:35 43.87885 15.23862 18126 ft 378 kts 137°
2026-04-17 09:35 43.85905 15.26244 17630 ft 376 kts 137°
2026-04-17 09:36 43.83932 15.28613 17137 ft 373 kts 137°
2026-04-17 09:36 43.81997 15.30930 16692 ft 371 kts 137°
2026-04-17 09:36 43.80047 15.33261 16220 ft 368 kts 137°
2026-04-17 09:36 43.78109 15.35576 15765 ft 366 kts 137°
2026-04-17 09:37 43.76187 15.37869 15302 ft 364 kts 137°
2026-04-17 09:37 43.74273 15.40150 14840 ft 361 kts 137°
2026-04-17 09:37 43.72372 15.42413 14405 ft 359 kts 137°
2026-04-17 09:37 43.70486 15.44656 13957 ft 357 kts 137°
2026-04-17 09:38 43.68607 15.46891 13460 ft 354 kts 137°
2026-04-17 09:38 43.66764 15.49080 12986 ft 352 kts 138°
2026-04-17 09:38 43.64914 15.51276 12525 ft 349 kts 138°
2026-04-17 09:38 43.63075 15.53455 12082 ft 346 kts 138°
2026-04-17 09:39 43.61252 15.55614 11630 ft 343 kts 138°
2026-04-17 09:39 43.59440 15.57756 11158 ft 341 kts 138°
2026-04-17 09:39 43.57635 15.59889 10652 ft 341 kts 138°
2026-04-17 09:39 43.55867 15.61975 10403 ft 333 kts 138°
2026-04-17 09:40 43.54132 15.64021 10246 ft 322 kts 138°
2026-04-17 09:40 43.52453 15.66001 10094 ft 312 kts 138°
2026-04-17 09:40 43.50831 15.67910 9933 ft 303 kts 138°
2026-04-17 09:40 43.49269 15.69751 9926 ft 288 kts 138°
2026-04-17 09:41 43.47718 15.71579 9286 ft 297 kts 138°
2026-04-17 09:41 43.46168 15.73404 8861 ft 297 kts 138°
2026-04-17 09:41 43.44596 15.75254 8508 ft 296 kts 138°
2026-04-17 09:41 43.43031 15.77092 8162 ft 294 kts 138°
2026-04-17 09:42 43.41472 15.78921 7818 ft 293 kts 138°
2026-04-17 09:42 43.39943 15.80714 7466 ft 291 kts 138°
2026-04-17 09:42 43.38440 15.82581 7130 ft 290 kts 134°
2026-04-17 09:42 43.37002 15.84530 6796 ft 288 kts 134°
2026-04-17 09:43 43.35581 15.86468 6457 ft 287 kts 134°
2026-04-17 09:43 43.34165 15.88395 6102 ft 284 kts 132°
2026-04-17 09:43 43.33160 15.90625 5730 ft 274 kts 104°
2026-04-17 09:43 43.33036 15.93169 5419 ft 263 kts 79°
2026-04-17 09:44 43.33601 15.95485 5270 ft 248 kts 60°
2026-04-17 09:44 43.34600 15.97300 5160 ft 235 kts 46°
2026-04-17 09:44 43.35730 15.98876 5071 ft 224 kts 45°
2026-04-17 09:44 43.36798 16.00337 4980 ft 210 kts 45°
2026-04-17 09:45 43.37800 16.01721 4748 ft 203 kts 45°
2026-04-17 09:45 43.38782 16.03085 4513 ft 199 kts 45°
2026-04-17 09:45 43.39740 16.04443 4291 ft 195 kts 48°
2026-04-17 09:45 43.40627 16.05860 4058 ft 194 kts 51°
2026-04-17 09:46 43.41438 16.07273 3816 ft 186 kts 52°
2026-04-17 09:46 43.42211 16.08660 3565 ft 179 kts 53°
2026-04-17 09:46 43.42949 16.09995 3350 ft 173 kts 53°
2026-04-17 09:46 43.43679 16.11318 3119 ft 173 kts 53°
2026-04-17 09:47 43.44407 16.12636 2883 ft 172 kts 53°
2026-04-17 09:47 43.45124 16.13937 2665 ft 169 kts 53°
2026-04-17 09:47 43.45831 16.15217 2455 ft 166 kts 53°
2026-04-17 09:47 43.46523 16.16469 2217 ft 164 kts 52°
2026-04-17 09:48 43.47211 16.17714 2026 ft 159 kts 52°
2026-04-17 09:48 43.47878 16.18920 1814 ft 159 kts 53°
2026-04-17 09:48 43.48532 16.20104 1618 ft 152 kts 53°
2026-04-17 09:48 43.49152 16.21226 1412 ft 147 kts 54°
2026-04-17 09:49 43.49772 16.22341 1269 ft 147 kts 56°
2026-04-17 09:49 43.50396 16.23451 1007 ft 145 kts 56°
2026-04-17 09:49 43.50979 16.24542 813 ft 140 kts 58°
2026-04-17 09:49 43.51564 16.25597 578 ft 139 kts 55°
2026-04-17 09:50 43.52152 16.26655 432 ft 137 kts 56°
2026-04-17 09:50 43.52733 16.27695 280 ft 139 kts 55°
2026-04-17 09:50 43.53308 16.28734 86 ft 137 kts 56°
2026-04-17 09:50 43.53794 16.29614 74 ft 86 kts 53°
2026-04-17 09:51 43.54059 16.30092 60 ft 44 kts 52°
2026-04-17 09:51 43.54220 16.30384 57 ft 36 kts 53°
2026-04-17 09:51 43.54369 16.30653 52 ft 34 kts 53°
2026-04-17 09:51 43.54506 16.30902 49 ft 29 kts 52°
2026-04-17 09:52 43.54553 16.31026 51 ft 9 kts 65°
2026-04-17 09:52 43.54581 16.31017 51 ft 6 kts 272°
2026-04-17 09:52 43.54553 16.30969 51 ft 9 kts 223°
2026-04-17 09:52 43.54489 16.30870 47 ft 19 kts 233°
2026-04-17 09:53 43.54396 16.30702 51 ft 24 kts 232°
2026-04-17 09:53 43.54291 16.30516 56 ft 24 kts 232°
2026-04-17 09:53 43.54195 16.30341 53 ft 23 kts 232°
2026-04-17 09:53 43.54105 16.30177 63 ft 18 kts 232°
2026-04-17 09:54 43.54015 16.30102 63 ft 15 kts 196°
2026-04-17 09:54 43.53923 16.30065 64 ft 12 kts 204°
2026-04-17 09:54 43.53866 16.29987 65 ft 12 kts 233°
2026-04-17 09:54 43.53817 16.29899 63 ft 11 kts 232°
2026-04-17 09:55 43.53770 16.29812 64 ft 12 kts 233°
2026-04-17 09:55 43.53719 16.29722 67 ft 12 kts 232°
2026-04-17 09:55 43.53687 16.29673 58 ft 5 kts 207°
2026-04-17 09:55 43.53661 16.29688 62 ft 5 kts 111°
2026-04-17 09:56 43.53660 16.29733 67 ft 5 kts 92°
2026-04-17 09:56 43.53660 16.29741 67 ft 0 kts 94°